FW1976 Weather Reports


time (UTC)temp
C
wind
direction
speed
KPH
gust
KPH
rain 1hr
cm
rain 24hr
cm
rain mn
cm
humidity
%
barometer
mb
20260507133030 17 198 8.0 19.3 0.00 0.00 0.00 51 1012.1
20260507131533 17 206 8.0 19.3 0.00 0.00 0.00 55 1012.3
20260507130027 17 196 4.8 17.7 0.00 0.00 0.00 54 1012.3
20260507124524 17 76 8.0 16.1 0.00 0.00 0.00 52 1012.5
20260507123021 17 156 9.7 17.7 0.00 0.00 0.00 58 1012.6
20260507121519 16 230 8.0 19.3 0.00 0.00 0.00 60 1012.7
20260507120034 16 134 4.8 16.1 0.00 0.00 0.00 59 1012.8
20260507114512 16 190 9.7 16.1 0.00 0.00 0.00 62 1012.9
20260507113033 16 207 8.0 19.3 0.00 0.00 0.00 62 1013.2
20260507111509 16 175 11.3 20.9 0.00 0.00 0.00 61 1013.3
20260507110010 15 213 8.0 22.5 0.00 0.00 0.00 64 1013.5
20260507104503 15 168 6.4 14.5 0.00 0.00 0.00 64 1013.9
20260507103001 15 178 1.6 12.9 0.00 0.00 0.00 63 1013.9
20260507101604 15 158 4.8 16.1 0.00 0.00 0.00 66 1013.9
20260507094558 14 182 9.7 19.3 0.00 0.00 0.00 68 1014.2
20260507093053 14 161 6.4 11.3 0.00 0.00 0.00 69 1014.2
20260507091550 13 146 4.8 12.9 0.00 0.00 0.00 69 1014.2
20260507090050 13 227 9.7 16.1 0.00 0.00 0.00 73 1014.1
20260507084543 12 134 3.2 11.3 0.00 0.00 0.00 73 1014.2
20260507083042 12 209 6.4 14.5 0.00 0.00 0.00 74 1014.3
20260507081544 12 157 3.2 9.7 0.00 0.00 0.00 73 1014.4
20260507080038 12 169 3.2 11.3 0.00 0.00 0.00 74 1014.6
20260507074534 12 188 4.8 8.0 0.00 0.00 0.00 74 1014.6
20260507073030 12 140 1.6 4.8 0.00 0.00 0.00 75 1014.6
20260507071533 11 162 1.6 6.4 0.00 0.00 0.00 75 1014.5
20260507070024 12 202 1.6 4.8 0.00 0.00 0.00 74 1014.2
20260507064520 12 317 0.0 4.8 0.00 0.00 0.00 75 1014.1
20260507063016 11 5 0.0 4.8 0.00 0.00 0.00 76 1014.0
20260507061513 10 58 1.6 4.8 0.00 0.00 0.00 76 1014.0
20260507060008 10 167 3.2 4.8 0.00 0.00 0.00 74 1014.1
20260507054503 10 53 1.6 4.8 0.00 0.00 0.00 74 1014.0
20260507053100 10 41 3.2 6.4 0.00 0.00 0.00 74 1013.7
20260507051555 10 41 4.8 8.0 0.00 0.00 0.00 74 1013.6
20260507050057 9 22 4.8 6.4 0.00 0.00 0.00 75 1013.7
20260507044552 9 60 1.6 4.8 0.00 0.00 0.00 74 1013.7
20260507043051 10 52 3.2 8.0 0.00 0.00 0.00 73 1013.6
20260507041550 10 26 6.4 9.7 0.00 0.00 0.00 74 1013.6
20260507040056 10 22 6.4 12.9 0.00 0.00 0.00 74 1013.6
20260507034605 10 5 4.8 9.7 0.00 0.00 0.00 74 1013.7
20260507033102 10 38 6.4 12.9 0.00 0.00 0.00 74 1013.6
20260507031547 10 35 8.0 11.3 0.00 0.00 0.00 74 1013.7
20260507030045 10 40 8.0 12.9 0.00 0.00 0.00 74 1013.7
20260507024553 10 32 8.0 14.5 0.00 0.00 0.00 75 1013.9
20260507023043 10 40 8.0 16.1 0.00 0.00 0.00 76 1013.9
20260507021542 10 19 9.7 16.1 0.00 0.00 0.00 76 1013.8
20260507020041 10 21 9.7 17.7 0.00 0.00 0.00 76 1013.7
20260507014540 10 32 11.3 20.9 0.00 0.00 0.00 76 1013.9
20260507013040 10 42 12.9 19.3 0.00 0.00 0.00 76 1013.7
20260507011539 10 16 9.7 17.7 0.00 0.00 0.00 77 1014.0
20260507010039 10 28 12.9 19.3 0.00 0.00 0.00 77 1014.0
20260507004531 9 18 12.9 19.3 0.00 0.00 0.00 79 1014.1
20260507003028 9 39 11.3 16.1 0.00 0.00 0.00 81 1014.2
20260507001529 10 55 11.3 17.7 0.00 0.00 0.00 82 1014.4
20260507000028 10 59 8.0 16.1 0.00 0.00 0.00 82 1014.5
20260506234541 10 41 9.7 14.5 0.00 0.00 0.00 83 1014.5
20260506233032 10 40 6.4 12.9 0.00 0.00 0.00 83 1014.5
20260506231517 10 86 6.4 11.3 0.00 0.00 0.00 82 1014.5
20260506230015 10 74 6.4 9.7 0.00 0.00 0.00 82 1014.4
20260506224523 10 63 4.8 12.9 0.00 0.00 0.00 81 1014.5
20260506223010 10 63 3.2 8.0 0.00 0.00 0.00 80 1014.4
20260506221511 10 76 6.4 12.9 0.00 0.00 0.00 79 1014.2
20260506220013 10 82 4.8 11.3 0.00 0.00 0.00 79 1014.2
20260506214505 10 69 4.8 9.7 0.00 0.00 0.00 78 1014.2
20260506213004 10 115 6.4 11.3 0.00 0.00 0.00 78 1014.1
20260506211508 10 89 6.4 14.5 0.00 0.00 0.00 76 1014.0
20260506210004 11 108 6.4 11.3 0.00 0.15 0.00 75 1013.9
20260506204600 11 148 1.6 6.4 0.00 0.15 0.00 74 1013.7
20260506203102 11 184 3.2 9.7 0.00 0.15 0.00 72 1013.5
20260506201557 11 142 1.6 6.4 0.00 0.15 0.00 71 1013.3
20260506200054 12 169 3.2 9.7 0.00 0.15 0.00 69 1013.0
20260506194555 12 157 6.4 14.5 0.00 0.15 0.00 67 1012.8
20260506193058 13 171 4.8 16.1 0.00 0.15 0.00 62 1012.6
20260506191655 13 219 8.0 11.3 0.00 0.15 0.00 55 1012.3
20260506190052 13 220 8.0 16.1 0.00 0.15 0.00 55 1012.0
20260506184551 13 229 6.4 11.3 0.00 0.15 0.00 55 1011.8
20260506183059 14 233 3.2 8.0 0.00 0.15 0.00 54 1011.7
20260506181604 15 225 3.2 14.5 0.00 0.15 0.00 53 1011.5
20260506180050 15 254 8.0 14.5 0.00 0.15 0.00 52 1011.4
20260506174548 15 186 6.4 17.7 0.00 0.18 0.00 52 1011.2
20260506173116 15 211 4.8 14.5 0.00 0.18 0.00 52 1011.2
20260506171554 15 228 6.4 16.1 0.00 0.18 0.00 51 1011.2
20260506170054 16 208 6.4 14.5 0.00 0.18 0.00 51 1011.1
20260506164545 16 240 6.4 16.1 0.00 0.18 0.00 51 1011.2
20260506163044 16 202 6.4 16.1 0.00 0.18 0.00 52 1011.1
20260506161544 16 219 9.7 20.9 0.00 0.18 0.00 51 1011.2
20260506160052 16 199 4.8 20.9 0.00 0.18 0.00 54 1011.1
20260506154544 16 209 16.1 27.4 0.00 0.18 0.00 50 1011.0
20260506153041 16 223 9.7 19.3 0.00 0.18 0.00 52 1011.1
20260506151544 16 188 6.4 16.1 0.00 0.18 0.00 48 1011.2
20260506150040 16 122 4.8 22.5 0.00 0.18 0.00 52 1011.3
20260506144544 16 190 9.7 22.5 0.00 0.18 0.00 50 1011.2
20260506143039 16 150 3.2 16.1 0.00 0.18 0.00 51 1011.4
20260506141538 16 203 4.8 19.3 0.00 0.18 0.00 50 1011.6
20260506140038 16 203 11.3 20.9 0.00 0.18 0.00 51 1011.7
20260506134536 16 198 4.8 17.7 0.00 0.18 0.00 51 1011.9